Time,TemperatureF,DewpointF,PressureIn,WindDirection,WindDirectionDegrees,WindSpeedMPH,WindSpeedGustMPH,Humidity,HourlyPrecipIn,Conditions,Clouds,dailyrainin,SoftwareType,DateUTC
2013-03-27 00:04:00,33.3,21.3,29.88,NW,306,0.0,1.0,61,0.00,,,0.00,Wunderground v.1.15,2013-03-27 04:04:00,
2013-03-27 00:09:00,33.2,21.2,29.88,NW,306,0.0,1.0,61,0.00,,,0.00,Wunderground v.1.15,2013-03-27 04:09:00,
2013-03-27 00:14:00,33.2,21.2,29.88,WNW,298,0.0,1.0,61,0.00,,,0.00,Wunderground v.1.15,2013-03-27 04:14:00,
2013-03-27 00:19:00,33.2,21.2,29.88,West,281,1.0,4.0,61,0.00,,,0.00,Wunderground v.1.15,2013-03-27 04:19:00,
2013-03-27 00:24:00,33.2,21.2,29.88,WNW,301,2.0,4.0,61,0.00,,,0.00,Wunderground v.1.15,2013-03-27 04:24:00,
2013-03-27 00:29:00,33.3,21.3,29.88,WNW,302,2.0,2.0,61,0.00,,,0.00,Wunderground v.1.15,2013-03-27 04:29:00,
2013-03-27 00:34:00,33.3,21.3,29.88,NW,314,2.0,2.0,61,0.00,,,0.00,Wunderground v.1.15,2013-03-27 04:34:00,
2013-03-27 00:39:00,33.3,21.3,29.89,WNW,288,2.0,5.0,61,0.00,,,0.00,Wunderground v.1.15,2013-03-27 04:39:00,
2013-03-27 00:44:00,33.5,21.5,29.89,WNW,298,2.0,5.0,61,0.00,,,0.00,Wunderground v.1.15,2013-03-27 04:44:00,
2013-03-27 00:49:00,33.6,21.6,29.89,WNW,290,3.0,3.0,61,0.00,,,0.00,Wunderground v.1.15,2013-03-27 04:49:00,
2013-03-27 00:59:00,33.8,21.8,29.89,WNW,288,2.0,2.0,61,0.00,,,0.00,Wunderground v.1.15,2013-03-27 04:59:00,
2013-03-27 01:04:00,33.8,21.8,29.89,WNW,288,2.0,2.0,61,0.00,,,0.00,Wunderground v.1.15,2013-03-27 05:04:00,
2013-03-27 01:09:00,33.7,21.7,29.89,WNW,288,1.0,1.0,61,0.00,,,0.00,Wunderground v.1.15,2013-03-27 05:09:00,
2013-03-27 01:14:00,33.6,21.6,29.89,WNW,292,0.0,2.0,61,0.00,,,0.00,Wunderground v.1.15,2013-03-27 05:14:00,
2013-03-27 01:19:00,33.4,21.4,29.89,WNW,297,0.0,1.0,61,0.00,,,0.00,Wunderground v.1.15,2013-03-27 05:19:00,
2013-03-27 01:24:00,33.2,21.2,29.89,WNW,297,0.0,1.0,61,0.00,,,0.00,Wunderground v.1.15,2013-03-27 05:24:00,
2013-03-27 01:34:00,32.8,21.6,29.89,WNW,297,0.0,1.0,63,0.00,,,0.00,Wunderground v.1.15,2013-03-27 05:34:00,
2013-03-27 01:39:00,32.6,21.0,29.89,WNW,297,0.0,1.0,62,0.00,,,0.00,Wunderground v.1.15,2013-03-27 05:39:00,
2013-03-27 01:44:00,32.5,21.3,29.89,WNW,297,0.0,1.0,63,0.00,,,0.00,Wunderground v.1.15,2013-03-27 05:44:00,
2013-03-27 01:49:00,32.3,21.1,29.89,WNW,297,0.0,1.0,63,0.00,,,0.00,Wunderground v.1.15,2013-03-27 05:49:00,
2013-03-27 01:54:00,32.3,21.5,29.89,WNW,297,0.0,1.0,64,0.00,,,0.00,Wunderground v.1.15,2013-03-27 05:54:00,
2013-03-27 01:59:00,32.1,21.3,29.89,WNW,297,0.0,1.0,64,0.00,,,0.00,Wunderground v.1.15,2013-03-27 05:59:00,
2013-03-27 02:09:00,31.5,20.7,29.89,WNW,297,0.0,1.0,64,0.00,,,0.00,Wunderground v.1.15,2013-03-27 06:09:00,
2013-03-27 02:14:00,31.2,20.8,29.89,WNW,297,0.0,1.0,65,0.00,,,0.00,Wunderground v.1.15,2013-03-27 06:14:00,
2013-03-27 02:19:00,30.9,21.2,29.89,WNW,297,0.0,1.0,67,0.00,,,0.00,Wunderground v.1.15,2013-03-27 06:19:00,
2013-03-27 02:24:00,30.8,21.5,29.89,WNW,297,0.0,1.0,68,0.00,,,0.00,Wunderground v.1.15,2013-03-27 06:24:00,
2013-03-27 02:29:00,30.6,21.3,29.89,WNW,297,0.0,1.0,68,0.00,,,0.00,Wunderground v.1.15,2013-03-27 06:29:00,
2013-03-27 02:34:00,30.5,21.9,29.89,WNW,297,0.0,1.0,70,0.00,,,0.00,Wunderground v.1.15,2013-03-27 06:34:00,
2013-03-27 02:39:00,30.2,21.6,29.89,WNW,297,0.0,1.0,70,0.00,,,0.00,Wunderground v.1.15,2013-03-27 06:39:00,
2013-03-27 02:49:00,29.9,21.6,29.88,WNW,297,0.0,1.0,71,0.00,,,0.00,Wunderground v.1.15,2013-03-27 06:49:00,
2013-03-27 02:54:00,29.8,21.9,29.89,WNW,297,0.0,1.0,72,0.00,,,0.00,Wunderground v.1.15,2013-03-27 06:54:00,
2013-03-27 02:59:00,29.7,21.8,29.88,WNW,297,0.0,1.0,72,0.00,,,0.00,Wunderground v.1.15,2013-03-27 06:59:00,
2013-03-27 03:04:00,29.6,21.7,29.88,WNW,297,0.0,1.0,72,0.00,,,0.00,Wunderground v.1.15,2013-03-27 07:04:00,
2013-03-27 03:14:00,29.2,21.9,29.88,WNW,297,0.0,1.0,74,0.00,,,0.00,Wunderground v.1.15,2013-03-27 07:14:00,
2013-03-27 03:19:00,29.0,22.1,29.88,WNW,297,0.0,1.0,75,0.00,,,0.00,Wunderground v.1.15,2013-03-27 07:19:00,
2013-03-27 03:29:00,28.9,22.3,29.88,WNW,297,0.0,1.0,76,0.00,,,0.00,Wunderground v.1.15,2013-03-27 07:29:00,
2013-03-27 03:34:00,28.9,22.3,29.88,WNW,297,0.0,1.0,76,0.00,,,0.00,Wunderground v.1.15,2013-03-27 07:34:00,
2013-03-27 03:39:00,29.0,22.7,29.88,WNW,297,0.0,1.0,77,0.00,,,0.00,Wunderground v.1.15,2013-03-27 07:39:00,
2013-03-27 03:44:00,29.1,23.1,29.87,WSW,253,0.0,1.0,78,0.00,,,0.00,Wunderground v.1.15,2013-03-27 07:44:00,
2013-03-27 03:49:00,29.4,23.4,29.87,WSW,253,0.0,1.0,78,0.00,,,0.00,Wunderground v.1.15,2013-03-27 07:49:00,
2013-03-27 03:54:00,29.8,23.5,29.87,WSW,253,0.0,1.0,77,0.00,,,0.00,Wunderground v.1.15,2013-03-27 07:54:00,
2013-03-27 04:04:00,29.8,23.2,29.87,WSW,253,0.0,1.0,76,0.00,,,0.00,Wunderground v.1.15,2013-03-27 08:04:00,
2013-03-27 04:09:00,29.7,23.1,29.87,WSW,253,0.0,1.0,76,0.00,,,0.00,Wunderground v.1.15,2013-03-27 08:09:00,
2013-03-27 04:14:00,29.5,22.9,29.87,WSW,253,0.0,1.0,76,0.00,,,0.00,Wunderground v.1.15,2013-03-27 08:14:00,
2013-03-27 04:19:00,29.4,23.1,29.87,WSW,253,0.0,1.0,77,0.00,,,0.00,Wunderground v.1.15,2013-03-27 08:19:00,
2013-03-27 04:24:00,29.2,22.9,29.87,WSW,253,0.0,1.0,77,0.00,,,0.00,Wunderground v.1.15,2013-03-27 08:24:00,
2013-03-27 04:29:00,29.2,23.2,29.87,WSW,253,0.0,1.0,78,0.00,,,0.00,Wunderground v.1.15,2013-03-27 08:29:00,
2013-03-27 04:39:00,29.3,23.6,29.87,West,279,0.0,0.0,79,0.00,,,0.00,Wunderground v.1.15,2013-03-27 08:39:00,
2013-03-27 04:44:00,29.6,23.9,29.87,NW,306,0.0,0.0,79,0.00,,,0.00,Wunderground v.1.15,2013-03-27 08:44:00,
2013-03-27 04:49:00,29.7,23.7,29.87,WNW,303,0.0,1.0,78,0.00,,,0.00,Wunderground v.1.15,2013-03-27 08:49:00,
2013-03-27 04:54:00,30.2,23.9,29.87,West,267,0.0,1.0,77,0.00,,,0.00,Wunderground v.1.15,2013-03-27 08:54:00,
2013-03-27 05:04:00,31.1,24.4,29.87,WSW,254,1.0,4.0,76,0.00,,,0.00,Wunderground v.1.15,2013-03-27 09:04:00,
2013-03-27 05:09:00,31.3,24.6,29.87,WNW,291,1.0,1.0,76,0.00,,,0.00,Wunderground v.1.15,2013-03-27 09:09:00,
2013-03-27 05:14:00,31.3,24.3,29.87,WNW,287,1.0,2.0,75,0.00,,,0.00,Wunderground v.1.15,2013-03-27 09:14:00,
2013-03-27 05:19:00,31.3,24.3,29.87,WNW,287,0.0,2.0,75,0.00,,,0.00,Wunderground v.1.15,2013-03-27 09:19:00,
2013-03-27 05:29:00,31.0,24.3,29.87,WNW,283,0.0,2.0,76,0.00,,,0.00,Wunderground v.1.15,2013-03-27 09:29:00,
2013-03-27 05:39:00,31.0,24.3,29.87,WNW,283,0.0,2.0,76,0.00,,,0.00,Wunderground v.1.15,2013-03-27 09:39:00,
2013-03-27 05:44:00,31.3,24.3,29.87,WNW,286,1.0,2.0,75,0.00,,,0.00,Wunderground v.1.15,2013-03-27 09:44:00,
2013-03-27 05:49:00,31.6,24.6,29.87,WNW,285,1.0,2.0,75,0.00,,,0.00,Wunderground v.1.15,2013-03-27 09:49:00,
2013-03-27 05:54:00,31.7,24.7,29.87,WNW,284,1.0,2.0,75,0.00,,,0.00,Wunderground v.1.15,2013-03-27 09:54:00,
2013-03-27 05:59:00,31.8,24.5,29.87,WSW,257,1.0,4.0,74,0.00,,,0.00,Wunderground v.1.15,2013-03-27 09:59:00,
2013-03-27 06:04:00,32.0,24.6,29.87,WNW,287,2.0,4.0,74,0.00,,,0.00,Wunderground v.1.15,2013-03-27 10:04:00,
2013-03-27 06:14:00,32.0,24.6,29.87,West,279,1.0,2.0,74,0.00,,,0.00,Wunderground v.1.15,2013-03-27 10:14:00,
2013-03-27 06:19:00,31.8,24.5,29.87,West,279,1.0,2.0,74,0.00,,,0.00,Wunderground v.1.15,2013-03-27 10:19:00,
2013-03-27 06:24:00,31.7,24.7,29.87,WSW,254,0.0,2.0,75,0.00,,,0.00,Wunderground v.1.15,2013-03-27 10:24:00,
2013-03-27 06:29:00,31.6,24.6,29.88,West,277,0.0,2.0,75,0.00,,,0.00,Wunderground v.1.15,2013-03-27 10:29:00,
2013-03-27 06:34:00,31.6,24.6,29.88,West,277,0.0,2.0,75,0.00,,,0.00,Wunderground v.1.15,2013-03-27 10:34:00,
2013-03-27 06:39:00,31.5,24.5,29.88,West,277,0.0,2.0,75,0.00,,,0.00,Wunderground v.1.15,2013-03-27 10:39:00,
2013-03-27 06:44:00,31.5,24.5,29.88,SW,233,0.0,2.0,75,0.00,,,0.00,Wunderground v.1.15,2013-03-27 10:44:00,
2013-03-27 06:54:00,31.4,24.4,29.88,West,269,1.0,2.0,75,0.00,,,0.00,Wunderground v.1.15,2013-03-27 10:54:00,
2013-03-27 06:59:00,31.4,24.7,29.89,West,269,0.0,2.0,76,0.00,,,0.00,Wunderground v.1.15,2013-03-27 10:59:00,
2013-03-27 07:04:00,31.3,24.6,29.89,West,269,0.0,2.0,76,0.00,,,0.00,Wunderground v.1.15,2013-03-27 11:04:00,
2013-03-27 07:09:00,31.1,24.4,29.89,West,269,0.0,2.0,76,0.00,,,0.00,Wunderground v.1.15,2013-03-27 11:09:00,
2013-03-27 07:14:00,31.2,24.5,29.89,West,269,0.0,2.0,76,0.00,,,0.00,Wunderground v.1.15,2013-03-27 11:14:00,
2013-03-27 07:19:00,31.4,25.0,29.89,WNW,297,0.0,2.0,77,0.00,,,0.00,Wunderground v.1.15,2013-03-27 11:19:00,
2013-03-27 07:29:00,32.1,25.4,29.89,West,261,2.0,2.0,76,0.00,,,0.00,Wunderground v.1.15,2013-03-27 11:29:00,
2013-03-27 07:34:00,32.5,25.8,29.90,WSW,255,3.0,4.0,76,0.00,,,0.00,Wunderground v.1.15,2013-03-27 11:34:00,
2013-03-27 07:39:00,32.8,25.7,29.90,NW,306,3.0,3.0,75,0.00,,,0.00,Wunderground v.1.15,2013-03-27 11:39:00,
2013-03-27 07:44:00,33.0,25.9,29.90,WNW,290,3.0,5.0,75,0.00,,,0.00,Wunderground v.1.15,2013-03-27 11:44:00,
2013-03-27 07:49:00,33.1,26.0,29.90,West,267,3.0,3.0,75,0.00,,,0.00,Wunderground v.1.15,2013-03-27 11:49:00,
2013-03-27 07:54:00,33.3,26.2,29.90,WNW,286,4.0,5.0,75,0.00,,,0.00,Wunderground v.1.15,2013-03-27 11:54:00,
2013-03-27 08:04:00,33.6,26.5,29.90,West,271,3.0,3.0,75,0.00,,,0.00,Wunderground v.1.15,2013-03-27 12:04:00,
2013-03-27 08:09:00,33.7,26.6,29.90,WSW,240,3.0,3.0,75,0.00,,,0.00,Wunderground v.1.15,2013-03-27 12:09:00,
2013-03-27 08:14:00,33.7,26.6,29.90,WNW,286,3.0,4.0,75,0.00,,,0.00,Wunderground v.1.15,2013-03-27 12:14:00,
2013-03-27 08:19:00,33.8,26.7,29.91,WSW,257,3.0,3.0,75,0.00,,,0.00,Wunderground v.1.15,2013-03-27 12:19:00,
2013-03-27 08:24:00,33.9,26.8,29.91,West,265,3.0,4.0,75,0.00,,,0.00,Wunderground v.1.15,2013-03-27 12:24:00,
2013-03-27 08:29:00,34.1,27.0,29.91,WSW,242,2.0,4.0,75,0.00,,,0.00,Wunderground v.1.15,2013-03-27 12:29:00,
2013-03-27 08:34:00,34.2,27.1,29.91,WNW,288,3.0,5.0,75,0.00,,,0.00,Wunderground v.1.15,2013-03-27 12:34:00,
2013-03-27 08:44:00,34.5,27.1,29.91,WSW,254,2.0,3.0,74,0.00,,,0.00,Wunderground v.1.15,2013-03-27 12:44:00,
2013-03-27 08:49:00,34.7,27.3,29.91,SW,229,1.0,6.0,74,0.00,,,0.00,Wunderground v.1.15,2013-03-27 12:49:00,
2013-03-27 08:54:00,34.8,27.4,29.91,SW,236,1.0,6.0,74,0.00,,,0.00,Wunderground v.1.15,2013-03-27 12:54:00,
2013-03-27 08:59:00,34.9,27.5,29.91,WSW,237,1.0,1.0,74,0.00,,,0.00,Wunderground v.1.15,2013-03-27 12:59:00,
2013-03-27 09:04:00,35.1,27.6,29.91,SW,220,0.0,2.0,74,0.00,,,0.00,Wunderground v.1.15,2013-03-27 13:04:00,
2013-03-27 09:09:00,35.3,27.5,29.90,South,182,0.0,2.0,73,0.00,,,0.00,Wunderground v.1.15,2013-03-27 13:09:00,
2013-03-27 09:14:00,35.6,27.8,29.91,SSW,205,1.0,2.0,73,0.00,,,0.00,Wunderground v.1.15,2013-03-27 13:14:00,
2013-03-27 09:24:00,36.2,28.0,29.91,South,186,0.0,2.0,72,0.00,,,0.00,Wunderground v.1.15,2013-03-27 13:24:00,
2013-03-27 09:29:00,36.7,28.9,29.91,South,186,0.0,2.0,73,0.00,,,0.00,Wunderground v.1.15,2013-03-27 13:29:00,
2013-03-27 09:34:00,37.2,28.7,29.91,ESE,119,0.0,2.0,71,0.00,,,0.00,Wunderground v.1.15,2013-03-27 13:34:00,
2013-03-27 09:39:00,37.8,28.9,29.91,WSW,237,1.0,2.0,70,0.00,,,0.00,Wunderground v.1.15,2013-03-27 13:39:00,
2013-03-27 09:44:00,38.1,28.8,29.91,West,268,3.0,3.0,69,0.00,,,0.00,Wunderground v.1.15,2013-03-27 13:44:00,
2013-03-27 09:49:00,38.4,28.8,29.90,West,279,5.0,5.0,68,0.00,,,0.00,Wunderground v.1.15,2013-03-27 13:49:00,
2013-03-27 09:59:00,39.0,29.0,29.90,WNW,288,5.0,5.0,67,0.00,,,0.00,Wunderground v.1.15,2013-03-27 13:59:00,
2013-03-27 10:04:00,39.4,29.7,29.90,WNW,290,4.0,5.0,68,0.00,,,0.00,Wunderground v.1.15,2013-03-27 14:04:00,
2013-03-27 10:09:00,40.1,30.0,29.90,West,273,3.0,5.0,67,0.00,,,0.00,Wunderground v.1.15,2013-03-27 14:09:00,
2013-03-27 10:14:00,40.5,29.7,29.90,West,271,3.0,5.0,65,0.00,,,0.00,Wunderground v.1.15,2013-03-27 14:14:00,
2013-03-27 10:19:00,40.8,29.6,29.90,NW,322,4.0,4.0,64,0.00,,,0.00,Wunderground v.1.15,2013-03-27 14:19:00,
2013-03-27 10:24:00,41.4,29.3,29.90,WSW,252,3.0,4.0,62,0.00,,,0.00,Wunderground v.1.15,2013-03-27 14:24:00,
2013-03-27 10:29:00,41.9,30.6,29.90,West,275,2.0,2.0,64,0.00,,,0.00,Wunderground v.1.15,2013-03-27 14:29:00,
2013-03-27 10:39:00,43.0,30.1,29.90,WNW,285,3.0,4.0,60,0.00,,,0.00,Wunderground v.1.15,2013-03-27 14:39:00,
2013-03-27 10:44:00,43.2,29.4,29.90,West,275,4.0,4.0,58,0.00,,,0.00,Wunderground v.1.15,2013-03-27 14:44:00,
2013-03-27 10:49:00,43.4,30.4,29.90,NW,315,3.0,3.0,60,0.00,,,0.00,Wunderground v.1.15,2013-03-27 14:49:00,
2013-03-27 10:54:00,43.7,30.7,29.90,WNW,284,3.0,3.0,60,0.00,,,0.00,Wunderground v.1.15,2013-03-27 14:54:00,
2013-03-27 10:59:00,44.5,31.5,29.90,WNW,291,2.0,2.0,60,0.00,,,0.00,Wunderground v.1.15,2013-03-27 14:59:00,
2013-03-27 11:04:00,45.4,31.0,29.90,WNW,302,2.0,2.0,57,0.00,,,0.00,Wunderground v.1.15,2013-03-27 15:04:00,
2013-03-27 11:09:00,45.4,29.7,29.90,West,267,2.0,3.0,54,0.00,,,0.00,Wunderground v.1.15,2013-03-27 15:09:00,
2013-03-27 11:19:00,45.1,29.9,29.90,WSW,256,2.0,6.0,55,0.00,,,0.00,Wunderground v.1.15,2013-03-27 15:19:00,
2013-03-27 11:24:00,45.5,30.7,29.90,WNW,301,3.0,6.0,56,0.00,,,0.00,Wunderground v.1.15,2013-03-27 15:24:00,
2013-03-27 11:29:00,46.4,32.0,29.90,NW,309,3.0,8.0,57,0.00,,,0.00,Wunderground v.1.15,2013-03-27 15:29:00,
2013-03-27 11:34:00,46.2,29.5,29.90,WNW,294,3.0,8.0,52,0.00,,,0.00,Wunderground v.1.15,2013-03-27 15:34:00,
2013-03-27 11:39:00,46.0,30.3,29.90,West,265,5.0,6.0,54,0.00,,,0.00,Wunderground v.1.15,2013-03-27 15:39:00,
2013-03-27 11:44:00,46.0,29.8,29.90,WNW,297,5.0,7.0,53,0.00,,,0.00,Wunderground v.1.15,2013-03-27 15:44:00,
2013-03-27 11:54:00,45.8,29.2,29.90,West,265,6.0,7.0,52,0.00,,,0.00,Wunderground v.1.15,2013-03-27 15:54:00,
2013-03-27 11:59:00,45.6,29.4,29.90,SW,225,6.0,6.0,53,0.00,,,0.00,Wunderground v.1.15,2013-03-27 15:59:00,
2013-03-27 12:04:00,45.4,28.8,29.90,WSW,254,6.0,6.0,52,0.00,,,0.00,Wunderground v.1.15,2013-03-27 16:04:00,
2013-03-27 12:09:00,45.7,30.9,29.90,WNW,300,5.0,7.0,56,0.00,,,0.00,Wunderground v.1.15,2013-03-27 16:09:00,
2013-03-27 12:14:00,46.2,29.5,29.90,West,270,5.0,9.0,52,0.00,,,0.00,Wunderground v.1.15,2013-03-27 16:14:00,
2013-03-27 12:19:00,46.1,29.4,29.90,West,261,7.0,7.0,52,0.00,,,0.00,Wunderground v.1.15,2013-03-27 16:19:00,
2013-03-27 12:24:00,46.6,29.4,29.90,WNW,286,8.0,8.0,51,0.00,,,0.00,Wunderground v.1.15,2013-03-27 16:24:00,
2013-03-27 12:29:00,46.7,29.0,29.90,WSW,242,8.0,8.0,50,0.00,,,0.00,Wunderground v.1.15,2013-03-27 16:29:00,
2013-03-27 12:39:00,47.1,29.9,29.90,WSW,246,8.0,8.0,51,0.00,,,0.00,Wunderground v.1.15,2013-03-27 16:39:00,
2013-03-27 12:44:00,47.2,29.0,29.89,WSW,256,7.0,8.0,49,0.00,,,0.00,Wunderground v.1.15,2013-03-27 16:44:00,
2013-03-27 12:49:00,47.3,29.1,29.90,NW,306,8.0,9.0,49,0.00,,,0.00,Wunderground v.1.15,2013-03-27 16:49:00,
2013-03-27 12:54:00,47.9,29.1,29.90,WNW,289,9.0,9.0,48,0.00,,,0.00,Wunderground v.1.15,2013-03-27 16:54:00,
2013-03-27 12:59:00,48.6,30.3,29.90,West,265,9.0,9.0,49,0.00,,,0.00,Wunderground v.1.15,2013-03-27 16:59:00,
2013-03-27 13:04:00,48.3,27.9,29.89,NW,308,7.0,9.0,45,0.00,,,0.00,Wunderground v.1.15,2013-03-27 17:04:00,
2013-03-27 13:09:00,48.3,27.9,29.89,WNW,288,7.0,7.0,45,0.00,,,0.00,Wunderground v.1.15,2013-03-27 17:09:00,
2013-03-27 13:19:00,48.2,28.4,29.89,NW,315,8.0,18.0,46,0.00,,,0.00,Wunderground v.1.15,2013-03-27 17:19:00,
2013-03-27 13:24:00,47.4,27.1,29.89,NW,325,10.0,18.0,45,0.00,,,0.00,Wunderground v.1.15,2013-03-27 17:24:00,
2013-03-27 13:29:00,47.3,28.6,29.89,WNW,292,9.0,9.0,48,0.00,,,0.00,Wunderground v.1.15,2013-03-27 17:29:00,
2013-03-27 13:34:00,48.2,29.4,29.89,West,272,8.0,13.0,48,0.00,,,0.00,Wunderground v.1.15,2013-03-27 17:34:00,
2013-03-27 13:39:00,48.7,28.3,29.89,WNW,296,8.0,8.0,45,0.00,,,0.00,Wunderground v.1.15,2013-03-27 17:39:00,
2013-03-27 13:44:00,48.1,28.3,29.89,NNW,330,7.0,8.0,46,0.00,,,0.00,Wunderground v.1.15,2013-03-27 17:44:00,
2013-03-27 13:54:00,47.3,27.5,29.88,WNW,302,8.0,11.0,46,0.00,,,0.00,Wunderground v.1.15,2013-03-27 17:54:00,
2013-03-27 13:59:00,47.9,29.1,29.88,WNW,299,9.0,10.0,48,0.00,,,0.00,Wunderground v.1.15,2013-03-27 17:59:00,
2013-03-27 14:04:00,48.4,28.0,29.88,NW,304,10.0,10.0,45,0.00,,,0.00,Wunderground v.1.15,2013-03-27 18:04:00,
2013-03-27 14:09:00,47.2,26.9,29.88,WNW,297,8.0,8.0,45,0.00,,,0.00,Wunderground v.1.15,2013-03-27 18:09:00,
2013-03-27 14:14:00,47.1,27.9,29.88,WNW,289,6.0,8.0,47,0.00,,,0.00,Wunderground v.1.15,2013-03-27 18:14:00,
2013-03-27 14:19:00,48.2,28.4,29.88,WNW,296,8.0,9.0,46,0.00,,,0.00,Wunderground v.1.15,2013-03-27 18:19:00,
2013-03-27 14:24:00,48.7,28.8,29.88,NW,307,9.0,9.0,46,0.00,,,0.00,Wunderground v.1.15,2013-03-27 18:24:00,
2013-03-27 14:34:00,49.2,29.3,29.88,West,267,7.0,10.0,46,0.00,,,0.00,Wunderground v.1.15,2013-03-27 18:34:00,
2013-03-27 14:39:00,48.9,26.8,29.88,West,260,8.0,15.0,42,0.00,,,0.00,Wunderground v.1.15,2013-03-27 18:39:00,
2013-03-27 14:44:00,48.7,27.7,29.88,WNW,292,9.0,15.0,44,0.00,,,0.00,Wunderground v.1.15,2013-03-27 18:44:00,
2013-03-27 14:49:00,48.2,27.3,29.88,West,277,8.0,8.0,44,0.00,,,0.00,Wunderground v.1.15,2013-03-27 18:49:00,
2013-03-27 14:54:00,48.2,27.3,29.88,WNW,289,7.0,8.0,44,0.00,,,0.00,Wunderground v.1.15,2013-03-27 18:54:00,
2013-03-27 14:59:00,48.6,27.6,29.88,West,281,8.0,8.0,44,0.00,,,0.00,Wunderground v.1.15,2013-03-27 18:59:00,
2013-03-27 15:04:00,48.8,27.8,29.88,WNW,296,8.0,8.0,44,0.00,,,0.00,Wunderground v.1.15,2013-03-27 19:04:00,
2013-03-27 15:14:00,47.8,26.9,29.88,West,271,7.0,8.0,44,0.00,,,0.00,Wunderground v.1.15,2013-03-27 19:14:00,
2013-03-27 15:19:00,47.9,28.1,29.88,West,279,8.0,8.0,46,0.00,,,0.00,Wunderground v.1.15,2013-03-27 19:19:00,
2013-03-27 15:24:00,47.8,27.5,29.88,West,275,8.0,8.0,45,0.00,,,0.00,Wunderground v.1.15,2013-03-27 19:24:00,
2013-03-27 15:29:00,46.9,27.2,29.88,WNW,286,8.0,10.0,46,0.00,,,0.00,Wunderground v.1.15,2013-03-27 19:29:00,
2013-03-27 15:34:00,47.9,27.6,29.88,West,274,8.0,10.0,45,0.00,,,0.00,Wunderground v.1.15,2013-03-27 19:34:00,
2013-03-27 15:39:00,48.7,27.2,29.88,WNW,282,8.0,8.0,43,0.00,,,0.00,Wunderground v.1.15,2013-03-27 19:39:00,
2013-03-27 15:49:00,48.3,25.7,29.88,West,273,10.0,10.0,41,0.00,,,0.00,Wunderground v.1.15,2013-03-27 19:49:00,
2013-03-27 15:54:00,48.1,26.1,29.88,West,272,10.0,10.0,42,0.00,,,0.00,Wunderground v.1.15,2013-03-27 19:54:00,
2013-03-27 15:59:00,48.2,26.2,29.88,WNW,287,10.0,10.0,42,0.00,,,0.00,Wunderground v.1.15,2013-03-27 19:59:00,
2013-03-27 16:04:00,48.8,26.1,29.88,WNW,290,9.0,10.0,41,0.00,,,0.00,Wunderground v.1.15,2013-03-27 20:04:00,
2013-03-27 16:09:00,48.7,26.0,29.88,West,261,10.0,10.0,41,0.00,,,0.00,Wunderground v.1.15,2013-03-27 20:09:00,
2013-03-27 16:14:00,48.3,26.8,29.88,WNW,290,10.0,11.0,43,0.00,,,0.00,Wunderground v.1.15,2013-03-27 20:14:00,
2013-03-27 16:19:00,48.9,27.9,29.88,WNW,284,8.0,9.0,44,0.00,,,0.00,Wunderground v.1.15,2013-03-27 20:19:00,
2013-03-27 16:29:00,47.8,25.2,29.89,West,273,10.0,10.0,41,0.00,,,0.00,Wunderground v.1.15,2013-03-27 20:29:00,
2013-03-27 16:34:00,47.8,25.2,29.89,WNW,303,10.0,14.0,41,0.00,,,0.00,Wunderground v.1.15,2013-03-27 20:34:00,
2013-03-27 16:39:00,47.9,24.7,29.89,West,271,10.0,10.0,40,0.00,,,0.00,Wunderground v.1.15,2013-03-27 20:39:00,
2013-03-27 16:44:00,48.1,25.5,29.89,NW,308,10.0,10.0,41,0.00,,,0.00,Wunderground v.1.15,2013-03-27 20:44:00,
2013-03-27 16:49:00,48.1,26.1,29.89,NW,317,9.0,11.0,42,0.00,,,0.00,Wunderground v.1.15,2013-03-27 20:49:00,
2013-03-27 16:54:00,48.3,26.2,29.89,WSW,255,9.0,11.0,42,0.00,,,0.00,Wunderground v.1.15,2013-03-27 20:54:00,
2013-03-27 17:04:00,47.7,25.1,29.89,West,259,10.0,10.0,41,0.00,,,0.00,Wunderground v.1.15,2013-03-27 21:04:00,
2013-03-27 17:14:00,46.7,26.5,29.90,West,271,9.0,10.0,45,0.00,,,0.00,Wunderground v.1.15,2013-03-27 21:14:00,
2013-03-27 17:19:00,46.8,26.0,29.90,WNW,303,9.0,11.0,44,0.00,,,0.00,Wunderground v.1.15,2013-03-27 21:19:00,
2013-03-27 17:24:00,46.8,26.6,29.90,WNW,296,10.0,11.0,45,0.00,,,0.00,Wunderground v.1.15,2013-03-27 21:24:00,
2013-03-27 17:29:00,46.9,26.1,29.90,NW,309,8.0,8.0,44,0.00,,,0.00,Wunderground v.1.15,2013-03-27 21:29:00,
2013-03-27 17:34:00,46.7,25.9,29.90,WNW,287,6.0,9.0,44,0.00,,,0.00,Wunderground v.1.15,2013-03-27 21:34:00,
2013-03-27 17:39:00,46.3,25.6,29.90,West,281,7.0,9.0,44,0.00,,,0.00,Wunderground v.1.15,2013-03-27 21:39:00,
2013-03-27 17:49:00,45.3,25.7,29.91,NW,319,8.0,8.0,46,0.00,,,0.00,Wunderground v.1.15,2013-03-27 21:49:00,
2013-03-27 17:54:00,44.9,24.8,29.91,NW,325,9.0,9.0,45,0.00,,,0.00,Wunderground v.1.15,2013-03-27 21:54:00,
2013-03-27 17:59:00,44.7,25.2,29.91,WNW,284,7.0,7.0,46,0.00,,,0.00,Wunderground v.1.15,2013-03-27 21:59:00,
2013-03-27 18:04:00,44.5,25.5,29.91,West,281,7.0,7.0,47,0.00,,,0.00,Wunderground v.1.15,2013-03-27 22:04:00,
2013-03-27 18:09:00,44.6,25.6,29.91,NW,304,7.0,7.0,47,0.00,,,0.00,Wunderground v.1.15,2013-03-27 22:09:00,
2013-03-27 18:14:00,44.7,26.2,29.91,West,272,7.0,7.0,48,0.00,,,0.00,Wunderground v.1.15,2013-03-27 22:14:00,
2013-03-27 18:24:00,44.5,26.0,29.92,West,259,8.0,8.0,48,0.00,,,0.00,Wunderground v.1.15,2013-03-27 22:24:00,
2013-03-27 18:29:00,44.4,26.4,29.92,West,264,6.0,7.0,49,0.00,,,0.00,Wunderground v.1.15,2013-03-27 22:29:00,
2013-03-27 18:34:00,44.1,26.1,29.92,West,265,7.0,7.0,49,0.00,,,0.00,Wunderground v.1.15,2013-03-27 22:34:00,
2013-03-27 18:39:00,43.9,26.4,29.92,NW,306,7.0,7.0,50,0.00,,,0.00,Wunderground v.1.15,2013-03-27 22:39:00,
2013-03-27 18:44:00,43.6,26.2,29.92,West,264,7.0,9.0,50,0.00,,,0.00,Wunderground v.1.15,2013-03-27 22:44:00,
2013-03-27 18:49:00,43.4,26.5,29.93,NW,321,8.0,8.0,51,0.00,,,0.00,Wunderground v.1.15,2013-03-27 22:49:00,
2013-03-27 18:54:00,43.3,26.8,29.93,WNW,290,7.0,10.0,52,0.00,,,0.00,Wunderground v.1.15,2013-03-27 22:54:00,
2013-03-27 19:04:00,42.8,26.4,29.93,WNW,292,7.0,13.0,52,0.00,,,0.00,Wunderground v.1.15,2013-03-27 23:04:00,
2013-03-27 19:09:00,42.5,26.6,29.93,WNW,286,7.0,7.0,53,0.00,,,0.00,Wunderground v.1.15,2013-03-27 23:09:00,
2013-03-27 19:14:00,42.2,26.7,29.94,West,263,5.0,7.0,54,0.00,,,0.00,Wunderground v.1.15,2013-03-27 23:14:00,
2013-03-27 19:19:00,41.8,26.8,29.94,WNW,283,3.0,9.0,55,0.00,,,0.00,Wunderground v.1.15,2013-03-27 23:19:00,
2013-03-27 19:24:00,41.5,27.0,29.94,West,277,4.0,9.0,56,0.00,,,0.00,Wunderground v.1.15,2013-03-27 23:24:00,
2013-03-27 19:29:00,41.2,27.1,29.94,WSW,251,4.0,4.0,57,0.00,,,0.00,Wunderground v.1.15,2013-03-27 23:29:00,
2013-03-27 19:39:00,40.8,27.6,29.94,West,263,4.0,4.0,59,0.00,,,0.00,Wunderground v.1.15,2013-03-27 23:39:00,
2013-03-27 19:44:00,40.6,27.4,29.95,WNW,286,4.0,4.0,59,0.00,,,0.00,Wunderground v.1.15,2013-03-27 23:44:00,
2013-03-27 19:49:00,40.4,27.2,29.95,WSW,240,5.0,7.0,59,0.00,,,0.00,Wunderground v.1.15,2013-03-27 23:49:00,
2013-03-27 19:54:00,40.5,26.9,29.95,WNW,295,6.0,12.0,58,0.00,,,0.00,Wunderground v.1.15,2013-03-27 23:54:00,
2013-03-27 19:59:00,40.4,26.8,29.95,West,279,6.0,6.0,58,0.00,,,0.00,Wunderground v.1.15,2013-03-27 23:59:00,
2013-03-27 20:04:00,40.2,27.0,29.95,West,267,5.0,7.0,59,0.00,,,0.00,Wunderground v.1.15,2013-03-28 00:04:00,
2013-03-27 20:09:00,40.1,26.9,29.96,WNW,296,5.0,5.0,59,0.00,,,0.00,Wunderground v.1.15,2013-03-28 00:09:00,
2013-03-27 20:19:00,39.8,26.6,29.96,WNW,283,4.0,6.0,59,0.00,,,0.00,Wunderground v.1.15,2013-03-28 00:19:00,
2013-03-27 20:24:00,39.7,26.9,29.96,West,278,4.0,6.0,60,0.00,,,0.00,Wunderground v.1.15,2013-03-28 00:24:00,
2013-03-27 20:29:00,39.5,26.8,29.96,West,273,4.0,4.0,60,0.00,,,0.00,Wunderground v.1.15,2013-03-28 00:29:00,
2013-03-27 20:39:00,39.2,26.9,29.96,West,281,1.0,5.0,61,0.00,,,0.00,Wunderground v.1.15,2013-03-28 00:39:00,
2013-03-27 20:44:00,39.1,26.8,29.96,West,281,1.0,5.0,61,0.00,,,0.00,Wunderground v.1.15,2013-03-28 00:44:00,
2013-03-27 20:49:00,38.9,26.6,29.97,West,274,1.0,2.0,61,0.00,,,0.00,Wunderground v.1.15,2013-03-28 00:49:00,
2013-03-27 20:59:00,38.8,26.5,29.97,West,279,1.0,2.0,61,0.00,,,0.00,Wunderground v.1.15,2013-03-28 00:59:00,
2013-03-27 21:04:00,38.6,26.7,29.97,WNW,292,1.0,2.0,62,0.00,,,0.00,Wunderground v.1.15,2013-03-28 01:04:00,
2013-03-27 21:09:00,38.5,27.0,29.97,WNW,288,1.0,1.0,63,0.00,,,0.00,Wunderground v.1.15,2013-03-28 01:09:00,
2013-03-27 21:14:00,38.4,26.9,29.97,West,269,1.0,2.0,63,0.00,,,0.00,Wunderground v.1.15,2013-03-28 01:14:00,
2013-03-27 21:19:00,38.4,26.9,29.97,WNW,303,1.0,2.0,63,0.00,,,0.00,Wunderground v.1.15,2013-03-28 01:19:00,
2013-03-27 21:24:00,38.3,27.2,29.97,West,274,2.0,2.0,64,0.00,,,0.00,Wunderground v.1.15,2013-03-28 01:24:00,
2013-03-27 21:34:00,38.6,27.5,29.98,WNW,288,3.0,7.0,64,0.00,,,0.00,Wunderground v.1.15,2013-03-28 01:34:00,
2013-03-27 21:39:00,38.4,27.3,29.98,WNW,286,3.0,6.0,64,0.00,,,0.00,Wunderground v.1.15,2013-03-28 01:39:00,
2013-03-27 21:44:00,38.7,27.9,29.98,WNW,302,5.0,7.0,65,0.00,,,0.00,Wunderground v.1.15,2013-03-28 01:44:00,
2013-03-27 21:49:00,38.7,27.6,29.98,WNW,294,5.0,5.0,64,0.00,,,0.00,Wunderground v.1.15,2013-03-28 01:49:00,
2013-03-27 21:54:00,38.6,27.8,29.98,WNW,293,3.0,5.0,65,0.00,,,0.00,Wunderground v.1.15,2013-03-28 01:54:00,
2013-03-27 21:59:00,38.5,27.7,29.98,West,259,3.0,3.0,65,0.00,,,0.00,Wunderground v.1.15,2013-03-28 01:59:00,
2013-03-27 22:09:00,38.5,28.1,29.97,WNW,282,5.0,5.0,66,0.00,,,0.00,Wunderground v.1.15,2013-03-28 02:09:00,
2013-03-27 22:14:00,38.4,28.0,29.97,WNW,296,5.0,5.0,66,0.00,,,0.00,Wunderground v.1.15,2013-03-28 02:14:00,
2013-03-27 22:19:00,38.4,28.0,29.98,WSW,255,5.0,5.0,66,0.00,,,0.00,Wunderground v.1.15,2013-03-28 02:19:00,
2013-03-27 22:24:00,38.4,28.0,29.98,WNW,291,5.0,5.0,66,0.00,,,0.00,Wunderground v.1.15,2013-03-28 02:24:00,
2013-03-27 22:29:00,38.3,27.9,29.98,NW,310,4.0,6.0,66,0.00,,,0.00,Wunderground v.1.15,2013-03-28 02:29:00,
2013-03-27 22:34:00,38.1,28.1,29.98,WNW,294,5.0,6.0,67,0.00,,,0.00,Wunderground v.1.15,2013-03-28 02:34:00,
2013-03-27 22:39:00,38.0,28.0,29.98,WSW,258,4.0,5.0,67,0.00,,,0.00,Wunderground v.1.15,2013-03-28 02:39:00,
2013-03-27 22:49:00,37.8,28.2,29.98,NW,305,5.0,7.0,68,0.00,,,0.00,Wunderground v.1.15,2013-03-28 02:49:00,
2013-03-27 22:54:00,37.6,28.3,29.98,WNW,296,4.0,7.0,69,0.00,,,0.00,Wunderground v.1.15,2013-03-28 02:54:00,
2013-03-27 22:59:00,37.6,28.7,29.98,West,271,4.0,11.0,70,0.00,,,0.00,Wunderground v.1.15,2013-03-28 02:59:00,
2013-03-27 23:04:00,37.7,28.8,29.98,WNW,285,6.0,11.0,70,0.00,,,0.00,Wunderground v.1.15,2013-03-28 03:04:00,
2013-03-27 23:09:00,37.6,28.7,29.98,West,281,6.0,8.0,70,0.00,,,0.00,Wunderground v.1.15,2013-03-28 03:09:00,
2013-03-27 23:14:00,37.6,28.7,29.98,WNW,300,4.0,8.0,70,0.00,,,0.00,Wunderground v.1.15,2013-03-28 03:14:00,
2013-03-27 23:19:00,37.5,28.6,29.98,WSW,248,4.0,4.0,70,0.00,,,0.00,Wunderground v.1.15,2013-03-28 03:19:00,
2013-03-27 23:29:00,37.2,28.7,29.98,West,259,4.0,4.0,71,0.00,,,0.00,Wunderground v.1.15,2013-03-28 03:29:00,
2013-03-27 23:34:00,37.1,28.6,29.98,WSW,250,3.0,4.0,71,0.00,,,0.00,Wunderground v.1.15,2013-03-28 03:34:00,
2013-03-27 23:39:00,37.1,28.6,29.98,WNW,287,3.0,6.0,71,0.00,,,0.00,Wunderground v.1.15,2013-03-28 03:39:00,
2013-03-27 23:44:00,37.0,28.8,29.98,WSW,250,3.0,6.0,72,0.00,,,0.00,Wunderground v.1.15,2013-03-28 03:44:00,
2013-03-27 23:49:00,36.8,28.6,29.98,WNW,287,2.0,2.0,72,0.00,,,0.00,Wunderground v.1.15,2013-03-28 03:49:00,
2013-03-27 23:54:00,36.8,28.6,29.98,WSW,254,2.0,2.0,72,0.00,,,0.00,Wunderground v.1.15,2013-03-28 03:54:00,